Weather History for Du Bois, PA

Change the Weather History Date:

Sunday, February 3, 2013

  Actual Average Record
Temperature  
Mean Temperature 18 °F 24 °F  
Max Temperature 21 °F 32 °F 52 °F (1991)
Min Temperature 14 °F 17 °F -5 °F (1965)
Degree Days  
Heating Degree Days 47 41  
Month to date heating degree days 153 123  
Since 1 July heating degree days 3734 4067  
Cooling Degree Days 0 0  
Month to date cooling degree days 0 0  
Year to date cooling degree days 0 0  
Moisture  
Dew Point 14 °F    
Average Humidity 87    
Maximum Humidity 100    
Minimum Humidity 73    
Precipitation  
Precipitation T in 0.07 in 0.97 in (1972)
Month to date precipitation 0.04 0.24  
Sea Level Pressure  
Sea Level Pressure 29.80 in    
Wind  
Wind Speed 9 mph (WSW)    
Max Wind Speed 22 mph    
Max Gust Speed 29 mph    
Visibility 3 miles    
Events Fog , Snow    
T = Trace of Precipitation, MM = Missing Value Source: NWS Daily Summary

Daily Weather History Graph

Daily Weather History Graph

Search for Another Location

Airport:

Trip Planner

Search our weather history database for the weather conditions in past years. The results will help you decide how hot, cold, wet, or windy it might be!

Date:

Astronomy

Feb. 03, 2013 Rise Set
Actual Time 7:24 AM EST 5:35 PM EST
Civil Twilight 6:55 AM EST 6:04 PM EST
Nautical Twilight 6:22 AM EST 6:37 PM EST
Astronomical Twilight 5:50 AM EST 7:09 PM EST
Moon 12:50 AM EST (2/3) 11:10 AM EST (2/3)
Length of Visible Light 11h 08m
Length of Day
10h 10m
Waning Gibbous, 49% of the Moon is Illuminated
Feb 3
Waning Gibbous
Feb 10
New
Feb 17
First Quarter
Feb 25
Full
Mar 4
Last Quarter

Hourly Weather History & Observations

Time (EST) Temp. Windchill Dew Point Humidity Pressure Visibility Wind Dir Wind Speed Gust Speed Precip Events Conditions
12:56 AM 19.0 °F 10.0 °F 16.0 °F 88% 29.95 in 7.0 mi WSW 6.9 mph - N/A   Overcast
1:56 AM 18.0 °F 9.8 °F 16.0 °F 92% 29.94 in 5.0 mi WSW 5.8 mph - N/A   Overcast
3:56 AM 18.0 °F 12.7 °F 16.0 °F 92% 29.90 in 5.0 mi WSW 3.5 mph - N/A   Overcast
4:56 AM 18.0 °F - 16.0 °F 92% 29.88 in 5.0 mi Calm Calm - N/A   Overcast
5:56 AM 18.0 °F - 16.0 °F 92% 29.87 in 6.0 mi Calm Calm - N/A   Overcast
6:56 AM 18.0 °F - 16.0 °F 92% 29.86 in 4.0 mi Calm Calm - N/A   Overcast
7:45 AM 17.6 °F 12.3 °F 15.8 °F 93% 29.78 in 1.8 mi WSW 3.5 mph - 0.00 in Snow Light Snow
7:56 AM 18.0 °F - 16.0 °F 92% 29.87 in 0.8 mi Calm Calm - 0.00 in Snow Light Snow
8:32 AM 19.4 °F 14.3 °F 17.6 °F 93% 29.78 in 1.2 mi SSW 3.5 mph - 0.00 in Snow Light Snow
8:52 AM 19.4 °F 14.3 °F 17.6 °F 93% 29.78 in 1.2 mi SW 3.5 mph - 0.00 in Snow Light Snow
8:56 AM 19.0 °F 12.3 °F 17.1 °F 92% 29.87 in 1.2 mi SW 4.6 mph - 0.00 in Snow Light Snow
9:25 AM 19.4 °F 10.4 °F 15.8 °F 86% 29.78 in 0.5 mi WSW 6.9 mph - 0.00 in Fog , Snow Light Snow
9:41 AM 19.4 °F 11.5 °F 15.8 °F 86% 29.77 in 1.2 mi WSW 5.8 mph - 0.00 in Snow Light Snow
9:56 AM 19.9 °F 13.4 °F 17.1 °F 89% 29.85 in 1.5 mi WSW 4.6 mph - 0.00 in Snow Light Snow
10:04 AM 19.4 °F 10.4 °F 15.8 °F 86% 29.77 in 3.0 mi West 6.9 mph - 0.00 in   Haze
10:09 AM 19.4 °F 10.4 °F 15.8 °F 86% 29.77 in 4.0 mi WSW 6.9 mph - 0.00 in   Overcast
10:12 AM 19.4 °F 11.5 °F 15.8 °F 86% 29.77 in 5.0 mi West 5.8 mph - 0.00 in   Haze
10:22 AM 19.4 °F 10.4 °F 15.8 °F 86% 29.77 in 4.0 mi WSW 6.9 mph - 0.00 in   Haze
10:28 AM 19.4 °F 10.4 °F 15.8 °F 86% 29.77 in 2.5 mi WSW 6.9 mph - 0.00 in   Haze
10:46 AM 19.4 °F 8.6 °F 15.8 °F 86% 29.77 in 2.5 mi WSW 9.2 mph - 0.00 in Snow Light Snow
10:56 AM 19.9 °F 10.1 °F 15.1 °F 81% 29.85 in 2.0 mi West 8.1 mph - 0.00 in Snow Light Snow
11:00 AM 19.4 °F 10.4 °F 15.8 °F 86% 29.76 in 1.5 mi West 6.9 mph - 0.00 in Snow Light Snow
11:20 AM 19.4 °F 11.5 °F 15.8 °F 86% 29.76 in 2.0 mi SW 5.8 mph - 0.00 in   Haze
11:30 AM 19.4 °F 12.8 °F 14.0 °F 80% 29.75 in 5.0 mi Variable 4.6 mph - 0.00 in   Haze
11:54 AM 21.2 °F 9.5 °F 12.2 °F 68% 29.74 in 6.0 mi WSW 11.5 mph - 0.00 in   Haze
11:56 AM 21.0 °F 8.6 °F 12.9 °F 71% 29.82 in 5.0 mi WSW 12.7 mph - 0.00 in   Haze
12:18 PM 21.2 °F 10.1 °F 14.0 °F 74% 29.73 in 1.8 mi SW 10.4 mph - 0.00 in Snow Light Snow
12:36 PM 21.2 °F 10.9 °F 14.0 °F 74% 29.73 in 3.0 mi West 9.2 mph - 0.00 in   Haze
12:46 PM 21.2 °F 9.5 °F 15.8 °F 80% 29.73 in 2.5 mi WSW 11.5 mph - 0.00 in   Haze
12:56 PM 21.0 °F 9.9 °F 15.1 °F 78% 29.80 in 1.8 mi WSW 10.4 mph - 0.00 in Snow Light Snow
1:06 PM 21.2 °F 10.1 °F 15.8 °F 80% 29.72 in 0.8 mi WSW 10.4 mph - 0.00 in Snow Light Snow
1:25 PM 21.2 °F 10.1 °F 15.8 °F 80% 29.71 in 1.5 mi WSW 10.4 mph 17.3 mph 0.00 in   Haze
1:50 PM 21.2 °F 7.8 °F 15.8 °F 80% 29.70 in 2.0 mi WSW 15.0 mph - 0.00 in   Haze
1:56 PM 21.0 °F 9.3 °F 16.0 °F 81% 29.78 in 1.8 mi West 11.5 mph - 0.00 in   Haze
2:11 PM 21.2 °F 7.8 °F 15.8 °F 80% 29.70 in 2.5 mi West 15.0 mph - 0.00 in Snow Light Snow
2:33 PM 21.2 °F 7.8 °F 14.0 °F 74% 29.70 in 4.0 mi West 15.0 mph - 0.00 in   Haze
2:56 PM 19.9 °F 5.7 °F 12.9 °F 74% 29.78 in 7.0 mi West 16.1 mph 24.2 mph 0.00 in   Overcast
3:20 PM 19.4 °F 5.0 °F 12.2 °F 74% 29.71 in 1.5 mi WSW 16.1 mph 25.3 mph 0.00 in Snow Light Snow
3:29 PM 19.4 °F 5.0 °F 14.0 °F 80% 29.72 in 0.8 mi West 16.1 mph - 0.00 in Snow Light Snow
3:38 PM 19.4 °F 7.2 °F 14.0 °F 80% 29.72 in 1.2 mi WSW 11.5 mph - 0.00 in Snow Light Snow
3:49 PM 19.4 °F 6.0 °F 14.0 °F 80% 29.72 in 2.0 mi West 13.8 mph - 0.00 in Snow Light Snow
3:56 PM 19.0 °F 6.1 °F 14.0 °F 81% 29.80 in 1.5 mi West 12.7 mph - 0.00 in Snow Light Snow
4:04 PM 19.4 °F 6.6 °F 14.0 °F 80% 29.72 in 3.0 mi West 12.7 mph - 0.00 in Snow Light Snow
4:27 PM 17.6 °F 2.7 °F 12.2 °F 79% 29.72 in 2.0 mi West 16.1 mph - 0.00 in Snow Light Snow
4:34 PM 17.6 °F 2.7 °F 12.2 °F 79% 29.72 in 1.0 mi West 16.1 mph - 0.00 in Snow Light Snow
4:46 PM 17.6 °F 3.2 °F 12.2 °F 79% 29.73 in 0.5 mi West 15.0 mph 24.2 mph 0.00 in Snow Snow
4:56 PM 18.0 °F 3.6 °F 12.9 °F 81% 29.82 in 0.5 mi West 15.0 mph - 0.00 in Snow Snow
5:16 PM 17.6 °F 3.2 °F 12.2 °F 79% 29.74 in 1.0 mi West 15.0 mph - 0.00 in Snow Light Snow
5:23 PM 17.6 °F 5.0 °F 12.2 °F 79% 29.74 in 0.8 mi West 11.5 mph 19.6 mph 0.00 in Snow Light Snow
5:31 PM 17.6 °F 3.7 °F 12.2 °F 79% 29.75 in 1.8 mi West 13.8 mph 19.6 mph 0.00 in Snow Light Snow
5:34 PM 17.6 °F 2.7 °F 12.2 °F 79% 29.75 in 3.0 mi West 16.1 mph 21.9 mph 0.00 in Snow Light Snow
5:56 PM 16.0 °F 1.7 °F 10.9 °F 81% 29.85 in 7.0 mi West 13.8 mph 21.9 mph 0.00 in   Overcast
6:56 PM 16.0 °F 1.7 °F 9.0 °F 74% 29.87 in 4.0 mi West 13.8 mph - N/A   Haze
7:56 PM 15.1 °F 1.1 °F 10.0 °F 80% 29.91 in 3.0 mi West 12.7 mph - 0.00 in   Haze
8:51 PM 15.8 °F 4.2 °F 10.4 °F 79% 29.82 in 2.0 mi West 9.2 mph - 0.00 in Snow Light Snow
8:56 PM 15.1 °F 4.2 °F 10.9 °F 84% 29.91 in 2.0 mi West 8.1 mph - 0.00 in   Overcast
9:09 PM 15.8 °F 5.1 °F 10.4 °F 79% 29.83 in 3.0 mi West 8.1 mph - N/A   Overcast
9:22 PM 15.8 °F 4.2 °F 10.4 °F 79% 29.83 in 2.5 mi West 9.2 mph - N/A   Overcast
9:56 PM 15.1 °F 3.3 °F 10.9 °F 84% 29.92 in 1.5 mi West 9.2 mph - 0.00 in Snow Light Snow
10:17 PM 15.8 °F 2.1 °F 10.4 °F 79% 29.83 in 1.8 mi West 12.7 mph - 0.00 in Snow Light Snow
10:25 PM 15.8 °F 0.9 °F 10.4 °F 79% 29.83 in 1.8 mi West 15.0 mph 20.7 mph 0.00 in Snow Light Snow
10:30 PM 15.8 °F 0.3 °F 10.4 °F 79% 29.83 in 2.5 mi West 16.1 mph 20.7 mph 0.00 in Snow Light Snow
10:32 PM 15.8 °F 1.4 °F 10.4 °F 79% 29.83 in 2.5 mi West 13.8 mph - 0.00 in Snow Light Snow
10:42 PM 15.8 °F 0.3 °F 10.4 °F 79% 29.84 in 1.5 mi West 16.1 mph 23.0 mph 0.00 in Snow Light Snow
10:49 PM 14.0 °F 0.5 °F 10.4 °F 86% 29.84 in 2.0 mi West 11.5 mph 23.0 mph 0.00 in Snow Light Snow
10:56 PM 14.0 °F -2.0 °F 10.0 °F 84% 29.93 in 2.5 mi West 16.1 mph 21.9 mph 0.00 in   Overcast
11:20 PM 14.0 °F -1.4 °F 10.4 °F 86% 29.84 in 2.5 mi WSW 15.0 mph 23.0 mph 0.00 in Snow Light Snow
11:49 PM 14.0 °F -2.5 °F 10.4 °F 86% 29.85 in 1.8 mi WSW 17.3 mph 21.9 mph 0.00 in Snow Light Snow
11:56 PM 14.0 °F -3.4 °F 10.0 °F 84% 29.94 in 1.8 mi WSW 19.6 mph 28.8 mph 0.00 in Snow Light Snow